This demonstration page uses our WeatherBlox Daily Observations layout. Learn more.

Left ArrowRight Arrow

36.19886, -115.1175

Hourly Observations for September 29, 2021

Temp ( °F °C ) Dew Point ( °F °C ) Humidity (%) Winds ( mph kmh ) Pressure ( in mb ) Visibility ( mi km ) Precip ( " mm )
12:53 am 00:53 Clear with Smoke 77 25 24 -4.4 14 14 NW 15 24 29.76 1008 10 16 0.00 0.00
1:53 am 01:53 Clear with Smoke 75 23.9 23 -5 14 14 N 9 15 29.77 1008 10 16 0.00 0.00
2:53 am 02:53 Clear with Smoke 74 23.3 20 -6.7 13 13 N 14 22 29.79 1009 10 16 0.00 0.00
3:53 am 03:53 Clear with Smoke 73 22.8 19 -7.2 13 13 NNW 16 26 29.79 1009 10 16 0.00 0.00
4:53 am 04:53 Clear with Smoke 71 21.7 18 -7.8 13 13 N 8 13 29.83 1010 10 16 0.00 0.00
5:53 am 05:53 Clear with Smoke 70 21.1 18 -7.8 14 14 N 16 26 29.86 1011 10 16 0.00 0.00
6:53 am 06:53 Sunny with Smoke 70 21.1 20 -6.7 15 15 NW 18 30 29.88 1012 10 16 0.00 0.00
7:53 am 07:53 Sunny 70 21.1 20 -6.7 15 15 N 13 20 29.91 1013 10 16 0.00 0.00
8:53 am 08:53 Sunny 70 21.1 21 -6.1 16 16 NNW 16 26 29.93 1013 10 16 0.00 0.00
9:53 am 09:53 Sunny 72 22.2 22 -5.6 15 15 NNW 17 28 29.94 1014 10 16 0.00 0.00
10:53 am 10:53 Sunny 75 23.9 21 -6.1 13 13 NNW 20 31 29.95 1014 10 16 0.00 0.00
11:53 am 11:53 Sunny 77 25 21 -6.1 12 12 NNW 16 26 29.94 1014 10 16 0.00 0.00
12:53 pm 12:53 Sunny 79 26.1 20 -6.7 11 11 NW 8 13 29.93 1013 10 16 0.00 0.00
1:53 pm 13:53 Sunny 81 27.2 17 -8.3 9 9 N 10 17 29.90 1013 10 16 0.00 0.00
2:53 pm 14:53 Sunny 82 27.8 15 -9.4 8 8 NNW 15 24 29.88 1012 10 16 0.00 0.00
3:53 pm 15:53 Sunny 83 28.3 9 -12.8 6 6 NW 9 15 29.88 1012 10 16 0.00 0.00
4:53 pm 16:53 Sunny 83 28.3 5 -15 5 5 NW 16 26 29.88 1012 10 16 0.00 0.00
5:53 pm 17:53 Sunny 82 27.8 7 -13.9 5 5 NNW 10 17 29.88 1012 10 16 0.00 0.00
6:53 pm 18:53 Clear 79 26.1 8 -13.3 6 6 N 8 13 29.91 1013 10 16 0.00 0.00
7:53 pm 19:53 Clear 77 25 14 -10 9 9 VRB 3 6 29.93 1014 10 16 0.00 0.00
8:53 pm 20:53 Clear 74 23.3 11 -11.7 9 9 NNW 7 11 29.95 1014 10 16 0.00 0.00
9:53 pm 21:53 Clear 73 22.8 17 -8.3 12 12 NE 7 11 29.98 1015 10 16 0.00 0.00
10:53 pm 22:53 Clear 71 21.7 22 -5.6 16 16 E 14 22 30.00 1016 10 16 0.00 0.00
11:53 pm 23:53 Clear 69 20.6 22 -5.6 17 17 Calm 30.01 1016 10 16 0.00 0.00

Powered by AerisWeather